[[{"header":{"parameterUnit":"m.s-1","parameterCategory":1,"la1":30.2991,"la2":30.254,"lo1":-89.0895,"lo2":-89.0444,"dy":0.0017,"dx":0.0017,"nx":28,"ny":28,"refTime":"2025-08-31T09:00:00:Z","depth":0,"parameterNumber":2,"parameterNumberName":"U-component_of_WINDS"},"data":[0,0,0,0,0,0,0,0,0,0,0,0,0,0,0,0,0,0,0,0,0,0,0,0,0,0,0,0,0,0,0,0,0,0,0,0,0,0,0,0,0,0,0,0,0,0,0,0,0,0,0,0,0,0,0,0,0,0,-4.6484,-4.6484,0,-4.6499,-4.6499,-4.6499,-4.6407,-4.6405,-4.6402,-4.64,-4.6416,-4.6419,-4.6421,0,0,0,0,0,0,0,0,0,0,0,0,0,-4.6379,-4.6381,-4.6484,-4.6484,-4.6485,-4.6499,-4.6499,-4.6499,-4.6408,-4.6405,-4.6402,-4.6399,-4.6415,-4.6418,-4.6422,0,0,0,0,0,0,0,0,0,0,0,0,0,-4.6412,-4.6382,-4.6484,-4.6441,-4.6437,-4.6499,-4.6499,-4.6499,-4.6409,-4.6405,-4.6401,-4.6397,-4.6414,-4.6418,-4.6422,-4.6527,0,0,-4.6435,-4.6437,0,0,0,0,0,0,0,0,-4.641,-4.6416,-4.6447,-4.6444,-4.644,-4.6447,-4.6468,-4.6509,-4.641,-4.6419,-4.64,-4.6395,-4.643,-4.6432,-4.6444,-4.6528,-4.6528,-4.6436,-4.6438,-4.644,-4.6441,0,0,0,0,0,0,0,-4.6408,-4.6415,-4.649,-4.6447,-4.6443,-4.6421,-4.6421,-4.6475,-4.6446,-4.6418,-4.6412,-4.6415,-4.6427,-4.644,-4.6443,-4.6529,-4.6436,-4.6439,-4.6442,-4.6444,-4.6701,-4.6705,0,0,0,0,0,0,-4.6411,-4.6414,-4.6489,-4.649,-4.6415,-4.6426,-4.6427,-4.6449,-4.6445,-4.6441,-4.6418,-4.641,-4.6434,-4.6438,-4.6444,-4.6567,-4.644,-4.6444,-4.6447,-4.6697,-4.6702,-4.6707,0,0,0,0,0,0,-4.641,-4.6419,-4.6489,-4.645,-4.6457,-4.6432,-4.6458,-4.6451,-4.6464,-4.6445,-4.644,-4.6436,-4.6431,-4.6438,-4.6507,-4.6566,-4.6446,-4.645,-4.6692,-4.6699,-4.6705,-4.6815,0,0,0,0,0,0,-4.6407,-4.6419,-4.6458,-4.6452,-4.646,-4.6552,-4.6461,-4.6454,-4.6472,-4.6462,-4.6461,-4.6457,-4.6429,-4.6501,-4.6512,-4.657,-4.6453,-4.6687,-4.6695,-4.6702,-4.6806,-4.6824,-4.684,0,0,0,0,0,-4.6403,-4.6488,-4.646,-4.647,-4.6508,-4.6556,-4.656,-4.6526,-4.6477,-4.6516,-4.6504,-4.6457,-4.6558,-4.6509,-4.652,-4.6581,-4.6683,-4.6693,-4.6702,-4.6798,-4.682,-4.6839,0,0,0,0,0,0,-4.6501,-4.6486,-4.6455,-4.654,-4.655,-4.654,-4.6588,-4.655,-4.6574,-4.6564,-4.652,-4.6521,-4.6599,-4.6596,-4.6542,-4.6683,-4.6612,-4.6624,-4.6681,-4.6703,-4.6719,-4.6718,-4.6457,0,0,0,0,0,-4.6533,-4.6573,-4.6557,-4.6634,-4.664,-4.6614,-4.6633,-4.6606,-4.6614,-4.6618,-4.6611,-4.6621,-4.6655,-4.6679,-4.6709,-4.6805,-4.6804,-4.6852,-4.6869,-4.6883,-4.6895,-4.6947,-4.6968,-4.6738,-4.6738,-4.6738,0,0,-4.6598,-4.6595,-4.6623,-4.6654,-4.6658,-4.6701,-4.6618,-4.6666,-4.6698,-4.6625,-4.6691,-4.6687,-4.6695,-4.6779,-4.6816,-4.678,-4.6958,-4.6896,-4.6907,-4.691,-4.6959,-4.6981,-4.7,-4.6745,-4.6744,-4.6743,0,0,-4.674,-4.6741,-4.6805,-4.6812,-4.6819,-4.6801,-4.6817,-4.6814,-4.6808,-4.6873,-4.682,-4.6858,-4.6917,-4.6926,-4.6938,-4.7085,-4.7043,-4.7096,-4.7186,-4.7237,-4.7255,-4.7271,-4.7325,-4.7344,-4.7107,-4.7108,-4.7108,0,-4.682,-4.6882,-4.6843,-4.6896,-4.6912,-4.6849,-4.6915,-4.6922,-4.694,-4.6953,-4.6912,-4.6987,-4.6988,-4.7074,-4.711,-4.7121,-4.7139,-4.7096,-4.7256,-4.7271,-4.7285,-4.7336,-4.7356,-4.7114,-4.7113,-4.7113,-4.7112,0,-4.6981,-4.7025,-4.7076,-4.7095,-4.7117,-4.7176,-4.7147,-4.7174,-4.7145,-4.7132,-4.7201,-4.72,-4.723,-4.7248,-4.7221,-4.7331,-4.7309,-4.7263,-4.7191,-4.7315,-4.7362,-4.7381,-4.7123,-4.7121,-4.7119,-4.7118,0,0,-4.7183,-4.7181,-4.7201,-4.721,-4.7214,-4.7248,-4.7305,-4.7334,-4.7358,-4.7373,-4.742,-4.7473,-4.7431,-4.7445,-4.7418,-4.7464,-4.7582,-4.7412,-4.7411,-4.7444,-4.7705,-4.774,-4.7763,-4.7554,-4.7558,-4.7561,-4.7705,0,-4.7322,-4.7418,-4.7387,-4.7485,-4.7526,-4.7468,-4.7517,-4.7526,-4.7516,-4.755,-4.7538,-4.7577,-4.7518,-4.7527,-4.7569,-4.7559,-4.7634,-4.7548,-4.7599,-4.7601,-4.7599,-4.7788,-4.7824,-4.796,-4.7723,-4.7726,-4.7728,0,-4.7496,-4.7519,-4.7621,-4.7621,-4.7637,-4.7682,-4.7707,-4.774,-4.775,-4.7739,-4.7756,-4.772,-4.7777,-4.7706,-4.7784,-4.7726,-4.7746,-4.7744,-4.7749,-4.7752,-4.7672,-4.7797,-4.8003,-4.8024,-4.7757,-4.7754,-4.7752,0,-4.7635,-4.7691,-4.7759,-4.7768,-4.7769,-4.7803,-4.7805,-4.781,-4.7831,-4.7853,-4.7866,-4.7895,-4.7911,-4.7935,-4.7909,-4.7859,-4.7992,-4.7917,-4.7986,-4.7987,-4.8016,-4.8015,-4.8229,-4.8028,-4.8028,-4.8028,-4.8027,0,-4.7793,-4.7859,-4.7822,-4.7864,-4.7937,-4.79,-4.7972,-4.7968,-4.7974,-4.8015,-4.7967,-4.8007,-4.7969,-4.8006,-4.7986,-4.8055,-4.8062,-4.8056,-4.805,-4.8061,-4.8062,-4.8073,-4.8063,-4.8033,-4.8032,-4.8031,-4.803,0,-4.796,-4.7938,-4.8009,-4.8005,-4.8006,-4.8059,-4.8055,-4.8095,-4.8082,-4.8135,-4.8146,-4.8126,-4.8167,-4.8143,-4.8185,-4.8171,-4.8262,-4.8242,-4.8259,-4.8254,-4.8324,-4.8318,-4.8552,-4.8582,-4.8362,-4.8364,-4.8366,0,-4.8063,-4.8112,-4.8113,-4.8137,-4.8143,-4.8182,-4.8203,-4.817,-4.8194,-4.821,-4.8248,-4.8285,-4.8313,-4.8382,-4.8371,-4.8404,-4.8385,-4.8466,-4.839,-4.84,-4.8388,-4.8386,-4.8391,-4.8481,-4.8483,-4.8486,-4.8487,0,-4.8248,-4.8235,-4.8266,-4.8296,-4.8322,-4.8343,-4.836,-4.8383,-4.835,-4.8379,-4.8421,-4.8443,-4.8487,-4.8525,-4.8553,-4.8555,-4.8517,-4.8511,-4.8529,-4.8541,-4.8548,-4.8546,-4.8301,-4.8506,-4.8504,-4.8503,-4.8502,-4.8501,-4.8386,-4.8427,-4.8435,-4.8473,-4.8483,-4.85,-4.8538,-4.853,-4.8564,-4.8597,-4.8575,-4.8625,-4.8635,-4.8669,-4.8678,-4.8717,-4.8684,-4.871,-4.8716,-4.8723,-4.8733,-4.8542,-4.8722,-4.8721,-4.872,-4.872,-4.872,0,-4.8569,-4.8572,-4.8607,-4.8633,-4.8663,-4.8624,-4.8641,-4.8669,-4.8714,-4.8726,-4.8755,-4.8804,-4.8842,-4.8835,-4.8869,-4.8902,-4.8885,-4.8912,-4.8909,-4.8911,-4.876,-4.8741,-4.8925,-4.8925,-4.8925,-4.8925,-4.8925,-4.8925,-4.8668,-4.8737,-4.8725,-4.8799,-4.8801,-4.8849,-4.8863,-4.888,-4.889,-4.8947,-4.8978,-4.8973,-4.8979,-4.9013,-4.9046,-4.9043,-4.9058,-4.9092,-4.9083,-4.8942,-4.8921,-4.8902,-4.8885,-4.9096,-4.9096,-4.9231,-4.9232,-4.9233]},{"header":{"parameterUnit":"m.s-1","parameterCategory":1,"la1":30.2991,"la2":30.254,"lo1":-89.0895,"lo2":-89.0444,"dy":0.0017,"dx":0.0017,"nx":28,"ny":28,"refTime":"2025-08-31T09:00:00:Z","depth":0,"parameterNumber":3,"parameterNumberName":"V-component_of_WINDS"},"data":[0,0,0,0,0,0,0,0,0,0,0,0,0,0,0,0,0,0,0,0,0,0,0,0,0,0,0,0,0,0,0,0,0,0,0,0,0,0,0,0,0,0,0,0,0,0,0,0,0,0,0,0,0,0,0,0,0,0,-0.6005,-0.6005,0,-0.6024,-0.6024,-0.6024,-0.5996,-0.5995,-0.5994,-0.5993,-0.6015,-0.6016,-0.6018,0,0,0,0,0,0,0,0,0,0,0,0,0,-0.5945,-0.5947,-0.6005,-0.6005,-0.6005,-0.6024,-0.6024,-0.6024,-0.5996,-0.5995,-0.5994,-0.5993,-0.6014,-0.6016,-0.6018,0,0,0,0,0,0,0,0,0,0,0,0,0,-0.5968,-0.5947,-0.6005,-0.5993,-0.5993,-0.6024,-0.6024,-0.6024,-0.5997,-0.5995,-0.5994,-0.5992,-0.6014,-0.6016,-0.6018,-0.6062,0,0,-0.6025,-0.6026,0,0,0,0,0,0,0,0,-0.5967,-0.5971,-0.5995,-0.5994,-0.5993,-0.6006,-0.6011,-0.6037,-0.5997,-0.5995,-0.5993,-0.5992,-0.6013,-0.6015,-0.6022,-0.6063,-0.6063,-0.6025,-0.6027,-0.6028,-0.6028,0,0,0,0,0,0,0,-0.5966,-0.597,-0.6012,-0.5995,-0.5994,-0.5988,-0.5989,-0.6016,-0.6012,-0.5995,-0.5993,-0.5996,-0.6013,-0.602,-0.6023,-0.6064,-0.6025,-0.6027,-0.6029,-0.6029,-0.614,-0.6141,0,0,0,0,0,0,-0.5965,-0.5969,-0.6012,-0.6013,-0.5976,-0.599,-0.5992,-0.6004,-0.6012,-0.6012,-0.5997,-0.5994,-0.6017,-0.602,-0.6023,-0.6074,-0.6028,-0.603,-0.6031,-0.6138,-0.614,-0.6142,0,0,0,0,0,0,-0.5964,-0.5969,-0.6011,-0.599,-0.5995,-0.5993,-0.6006,-0.6005,-0.6012,-0.6013,-0.6013,-0.6005,-0.6016,-0.602,-0.6052,-0.6075,-0.6031,-0.6033,-0.6136,-0.6139,-0.6141,-0.6177,0,0,0,0,0,0,-0.5962,-0.5969,-0.5985,-0.5991,-0.5996,-0.6039,-0.6007,-0.6006,-0.6016,-0.6013,-0.6021,-0.6021,-0.6015,-0.6049,-0.6054,-0.6077,-0.6034,-0.6134,-0.6137,-0.614,-0.6174,-0.618,-0.6186,0,0,0,0,0,-0.596,-0.5995,-0.5986,-0.5992,-0.6016,-0.604,-0.6043,-0.6036,-0.6018,-0.6034,-0.6035,-0.6021,-0.6071,-0.6052,-0.6058,-0.6082,-0.6133,-0.6137,-0.614,-0.6171,-0.6179,-0.6185,0,0,0,0,0,0,-0.5994,-0.5996,-0.5986,-0.6023,-0.6032,-0.6036,-0.6056,-0.6044,-0.6059,-0.6055,-0.6045,-0.6047,-0.6081,-0.6085,-0.6064,-0.6124,-0.6099,-0.6104,-0.612,-0.6128,-0.6134,-0.6133,-0.6036,0,0,0,0,0,-0.6005,-0.6024,-0.6025,-0.6058,-0.6062,-0.6059,-0.6069,-0.6062,-0.607,-0.6074,-0.6077,-0.6086,-0.6104,-0.6116,-0.6133,-0.6174,-0.6175,-0.6193,-0.6199,-0.6204,-0.6208,-0.623,-0.6238,-0.6154,-0.6154,-0.6153,0,0,-0.6029,-0.6033,-0.6046,-0.6065,-0.607,-0.609,-0.6062,-0.6084,-0.6099,-0.6078,-0.6108,-0.611,-0.612,-0.6156,-0.6172,-0.616,-0.6232,-0.6208,-0.6212,-0.6214,-0.6234,-0.6242,-0.6249,-0.6156,-0.6156,-0.6155,0,0,-0.6084,-0.6088,-0.6116,-0.6122,-0.613,-0.6127,-0.6134,-0.6139,-0.614,-0.617,-0.6154,-0.6171,-0.6202,-0.621,-0.6218,-0.6274,-0.6261,-0.6279,-0.6311,-0.6332,-0.6339,-0.6345,-0.6365,-0.6372,-0.6284,-0.6284,-0.6284,0,-0.6113,-0.6142,-0.6132,-0.6155,-0.6164,-0.6144,-0.6172,-0.6179,-0.6193,-0.6199,-0.6185,-0.6223,-0.6228,-0.6266,-0.6279,-0.6286,-0.6294,-0.6279,-0.6338,-0.6344,-0.635,-0.6368,-0.6376,-0.6286,-0.6286,-0.6285,-0.6285,0,-0.6178,-0.6198,-0.6219,-0.6232,-0.6243,-0.6269,-0.6263,-0.6275,-0.6267,-0.6266,-0.6296,-0.6301,-0.6318,-0.6327,-0.6319,-0.6363,-0.6355,-0.634,-0.6315,-0.636,-0.6377,-0.6385,-0.6289,-0.6288,-0.6288,-0.6287,0,0,-0.6255,-0.626,-0.6269,-0.6274,-0.6281,-0.6297,-0.6322,-0.6337,-0.6348,-0.6358,-0.6379,-0.6405,-0.639,-0.6399,-0.6392,-0.6411,-0.6455,-0.6393,-0.6393,-0.6405,-0.6503,-0.6515,-0.6523,-0.6446,-0.6447,-0.6448,-0.6502,0,-0.6309,-0.6351,-0.6342,-0.6383,-0.6401,-0.6382,-0.6404,-0.6411,-0.641,-0.6426,-0.6425,-0.6443,-0.6423,-0.6428,-0.6445,-0.6446,-0.6474,-0.6442,-0.6465,-0.6466,-0.6464,-0.6532,-0.6545,-0.6596,-0.6509,-0.651,-0.6511,0,-0.6378,-0.6389,-0.6432,-0.6436,-0.6443,-0.6463,-0.6476,-0.6491,-0.6499,-0.6497,-0.6506,-0.6496,-0.652,-0.6494,-0.6528,-0.6506,-0.6515,-0.6516,-0.6518,-0.652,-0.6492,-0.6537,-0.6612,-0.6619,-0.6522,-0.6521,-0.652,0,-0.6429,-0.6456,-0.6485,-0.649,-0.6495,-0.6509,-0.6512,-0.6518,-0.6527,-0.6539,-0.6545,-0.656,-0.6568,-0.658,-0.6574,-0.6556,-0.6609,-0.6582,-0.6608,-0.6608,-0.6621,-0.662,-0.6698,-0.6626,-0.6626,-0.6626,-0.6626,0,-0.6491,-0.6518,-0.6508,-0.6526,-0.6555,-0.6544,-0.6574,-0.6575,-0.658,-0.6598,-0.6583,-0.66,-0.659,-0.6607,-0.6602,-0.663,-0.6634,-0.6634,-0.6632,-0.6635,-0.6635,-0.6641,-0.6638,-0.6628,-0.6627,-0.6627,-0.6627,0,-0.6554,-0.6548,-0.6578,-0.658,-0.6581,-0.6603,-0.6605,-0.6622,-0.6619,-0.6642,-0.6646,-0.6643,-0.6661,-0.6656,-0.6676,-0.6673,-0.6709,-0.6703,-0.6706,-0.6705,-0.6731,-0.6729,-0.6816,-0.6827,-0.6748,-0.6748,-0.6749,0,-0.6594,-0.6614,-0.6618,-0.6628,-0.6632,-0.6649,-0.6659,-0.6649,-0.6659,-0.6669,-0.6684,-0.6701,-0.6714,-0.6745,-0.6744,-0.676,-0.6754,-0.6783,-0.6756,-0.6758,-0.6754,-0.6753,-0.6755,-0.6789,-0.679,-0.6791,-0.6791,0,-0.6665,-0.6661,-0.6675,-0.6688,-0.67,-0.671,-0.6718,-0.6728,-0.6718,-0.6731,-0.6749,-0.6759,-0.6779,-0.6796,-0.681,-0.6813,-0.6801,-0.68,-0.6806,-0.681,-0.6811,-0.6811,-0.6721,-0.6798,-0.6797,-0.6797,-0.6796,-0.6796,-0.6718,-0.6735,-0.674,-0.6756,-0.6761,-0.6769,-0.6784,-0.6783,-0.6798,-0.6813,-0.6806,-0.6828,-0.6834,-0.6851,-0.6856,-0.6872,-0.6861,-0.6871,-0.6874,-0.6876,-0.688,-0.6808,-0.6875,-0.6875,-0.6875,-0.6874,-0.6874,0,-0.6788,-0.679,-0.6805,-0.6817,-0.683,-0.6816,-0.6824,-0.6836,-0.6854,-0.6861,-0.6874,-0.6894,-0.6911,-0.6911,-0.6926,-0.6939,-0.6934,-0.6944,-0.6943,-0.6944,-0.6889,-0.6881,-0.6948,-0.6948,-0.6948,-0.6948,-0.6948,-0.6948,-0.6827,-0.6854,-0.685,-0.688,-0.6882,-0.6902,-0.6908,-0.6915,-0.6921,-0.6944,-0.6957,-0.6957,-0.6961,-0.6976,-0.699,-0.699,-0.6996,-0.7008,-0.7006,-0.6955,-0.6948,-0.6941,-0.6934,-0.701,-0.701,-0.706,-0.706,-0.706]}]]